contact:dominique.lefevre@mio.osupytheas.fr, maurice.libes@osupytheas.fr, didier.mallarino@osupytheas.fr
Project:EMSO http://www.emso-fr.org/EMSO-France
Depth: 2436.0 m
Title:EMSO Ligure Ouest : Data MII capteur OXYGEN
DateTime,Latitude,Longitude,Optode-Type,Optode_Serial,Oxygen,Saturation_Oxygen,Temperature
DateTime,Latitude,Longitude,Optode-Type,Optode_Serial,µmol.l-1,%,degC
2017-12-07T00:00:44,42.805,6.029,4330,1995,196.984,60.237,13.285
2017-12-07T00:03:44,42.805,6.029,4330,1995,197.079,60.266,13.285
2017-12-07T00:06:44,42.805,6.029,4330,1995,197.189,60.300,13.285
2017-12-07T00:09:44,42.805,6.029,4330,1995,197.311,60.337,13.285
2017-12-07T00:12:44,42.805,6.029,4330,1995,197.285,60.329,13.286
2017-12-07T00:15:44,42.805,6.029,4330,1995,197.212,60.307,13.286
2017-12-07T00:18:44,42.805,6.029,4330,1995,197.341,60.346,13.285
2017-12-07T00:21:44,42.805,6.029,4330,1995,197.359,60.352,13.286
2017-12-07T00:24:44,42.805,6.029,4330,1995,197.414,60.369,13.286
2017-12-07T00:27:44,42.805,6.029,4330,1995,197.426,60.372,13.285
2017-12-07T00:30:44,42.805,6.029,4330,1995,197.446,60.378,13.286
2017-12-07T00:33:44,42.805,6.029,4330,1995,197.475,60.387,13.285
2017-12-07T00:36:44,42.805,6.029,4330,1995,197.503,60.396,13.286
2017-12-07T00:39:44,42.805,6.029,4330,1995,197.615,60.430,13.285
2017-12-07T00:42:44,42.805,6.029,4330,1995,197.625,60.433,13.286
2017-12-07T00:45:44,42.805,6.029,4330,1995,197.618,60.431,13.285
2017-12-07T00:48:44,42.805,6.029,4330,1995,197.626,60.433,13.286
2017-12-07T00:51:44,42.805,6.029,4330,1995,197.620,60.432,13.286
2017-12-07T00:54:44,42.805,6.029,4330,1995,197.704,60.457,13.286
2017-12-07T00:57:44,42.805,6.029,4330,1995,197.589,60.422,13.286
2017-12-07T01:00:44,42.805,6.029,4330,1995,197.534,60.405,13.286
2017-12-07T01:03:44,42.805,6.029,4330,1995,197.446,60.379,13.286
2017-12-07T01:06:44,42.805,6.029,4330,1995,197.478,60.388,13.286
2017-12-07T01:09:44,42.805,6.029,4330,1995,197.597,60.425,13.286
2017-12-07T01:12:44,42.805,6.029,4330,1995,197.508,60.398,13.286
2017-12-07T01:15:44,42.805,6.029,4330,1995,197.531,60.404,13.286
2017-12-07T01:18:44,42.805,6.029,4330,1995,197.567,60.416,13.286
2017-12-07T01:21:44,42.805,6.029,4330,1995,197.532,60.405,13.286
2017-12-07T01:24:44,42.805,6.029,4330,1995,197.471,60.387,13.286
2017-12-07T01:27:44,42.805,6.029,4330,1995,197.563,60.414,13.286
2017-12-07T01:30:44,42.805,6.029,4330,1995,197.512,60.399,13.286
2017-12-07T01:33:44,42.805,6.029,4330,1995,197.538,60.407,13.286
2017-12-07T01:36:44,42.805,6.029,4330,1995,197.495,60.394,13.286
2017-12-07T01:39:44,42.805,6.029,4330,1995,197.534,60.406,13.286
2017-12-07T01:42:44,42.805,6.029,4330,1995,197.486,60.391,13.286
2017-12-07T01:45:44,42.805,6.029,4330,1995,197.575,60.418,13.286
2017-12-07T01:48:44,42.805,6.029,4330,1995,197.567,60.415,13.285
2017-12-07T01:51:44,42.805,6.029,4330,1995,197.631,60.435,13.285
2017-12-07T01:54:44,42.805,6.029,4330,1995,197.596,60.424,13.285
2017-12-07T01:57:44,42.805,6.029,4330,1995,197.643,60.439,13.285
2017-12-07T02:00:44,42.805,6.029,4330,1995,197.648,60.440,13.285
2017-12-07T02:03:44,42.805,6.029,4330,1995,197.626,60.434,13.286
2017-12-07T02:06:44,42.805,6.029,4330,1995,197.532,60.405,13.285
2017-12-07T02:09:44,42.805,6.029,4330,1995,197.657,60.443,13.285
2017-12-07T02:12:44,42.805,6.029,4330,1995,197.745,60.470,13.286
2017-12-07T02:15:44,42.805,6.029,4330,1995,197.724,60.463,13.285
2017-12-07T02:18:44,42.805,6.029,4330,1995,197.767,60.477,13.285
2017-12-07T02:21:44,42.805,6.029,4330,1995,197.793,60.484,13.285
2017-12-07T02:24:44,42.805,6.029,4330,1995,197.778,60.480,13.285
2017-12-07T02:27:44,42.805,6.029,4330,1995,197.850,60.502,13.285
2017-12-07T02:30:44,42.805,6.029,4330,1995,197.811,60.490,13.285
2017-12-07T02:33:44,42.805,6.029,4330,1995,197.840,60.499,13.286
2017-12-07T02:36:44,42.805,6.029,4330,1995,197.767,60.477,13.285
2017-12-07T02:39:44,42.805,6.029,4330,1995,197.917,60.522,13.285
2017-12-07T02:42:44,42.805,6.029,4330,1995,197.921,60.523,13.285
2017-12-07T02:45:44,42.805,6.029,4330,1995,197.871,60.508,13.285
2017-12-07T02:48:44,42.805,6.029,4330,1995,197.895,60.516,13.285
2017-12-07T02:51:44,42.805,6.029,4330,1995,197.885,60.513,13.286
2017-12-07T02:54:44,42.805,6.029,4330,1995,197.767,60.477,13.286
2017-12-07T02:57:44,42.805,6.029,4330,1995,197.688,60.452,13.286
2017-12-07T03:00:44,42.805,6.029,4330,1995,197.650,60.441,13.286
2017-12-07T03:03:44,42.805,6.029,4330,1995,197.560,60.414,13.286
2017-12-07T03:06:44,42.805,6.029,4330,1995,197.442,60.378,13.286
2017-12-07T03:09:44,42.805,6.029,4330,1995,197.442,60.377,13.286
2017-12-07T03:12:44,42.805,6.029,4330,1995,197.498,60.394,13.285
2017-12-07T03:15:44,42.805,6.029,4330,1995,197.455,60.381,13.286
2017-12-07T03:18:44,42.805,6.029,4330,1995,197.586,60.421,13.285
2017-12-07T03:21:44,42.805,6.029,4330,1995,197.491,60.393,13.286
2017-12-07T03:24:44,42.805,6.029,4330,1995,197.586,60.421,13.285
2017-12-07T03:27:44,42.805,6.029,4330,1995,197.463,60.384,13.286
2017-12-07T03:30:44,42.805,6.029,4330,1995,197.443,60.378,13.286
2017-12-07T03:33:44,42.805,6.029,4330,1995,197.461,60.383,13.286
2017-12-07T03:36:44,42.805,6.029,4330,1995,197.379,60.358,13.286
2017-12-07T03:39:44,42.805,6.029,4330,1995,197.378,60.358,13.286
2017-12-07T03:42:44,42.805,6.029,4330,1995,197.468,60.385,13.285
2017-12-07T03:45:44,42.805,6.029,4330,1995,197.491,60.392,13.286
2017-12-07T03:48:44,42.805,6.029,4330,1995,197.577,60.419,13.286
2017-12-07T03:51:44,42.805,6.029,4330,1995,197.534,60.405,13.286
2017-12-07T03:54:44,42.805,6.029,4330,1995,197.514,60.399,13.285
2017-12-07T03:57:44,42.805,6.029,4330,1995,197.503,60.396,13.286
2017-12-07T04:00:44,42.805,6.029,4330,1995,197.488,60.391,13.286
2017-12-07T04:03:44,42.805,6.029,4330,1995,197.471,60.386,13.286
2017-12-07T04:06:44,42.805,6.029,4330,1995,197.429,60.373,13.286
2017-12-07T04:09:44,42.805,6.029,4330,1995,197.371,60.356,13.286
2017-12-07T04:12:44,42.805,6.029,4330,1995,197.464,60.384,13.286
2017-12-07T04:15:44,42.805,6.029,4330,1995,197.499,60.395,13.286
2017-12-07T04:18:44,42.805,6.029,4330,1995,197.450,60.380,13.286
2017-12-07T04:21:44,42.805,6.029,4330,1995,197.377,60.358,13.286
2017-12-07T04:24:44,42.805,6.029,4330,1995,197.381,60.359,13.286
2017-12-07T04:27:44,42.805,6.029,4330,1995,197.323,60.342,13.286
2017-12-07T04:30:44,42.805,6.029,4330,1995,197.384,60.360,13.286
2017-12-07T04:33:44,42.805,6.029,4330,1995,197.348,60.348,13.286
2017-12-07T04:36:44,42.805,6.029,4330,1995,197.317,60.339,13.286
2017-12-07T04:39:44,42.805,6.029,4330,1995,197.410,60.367,13.286
2017-12-07T04:42:44,42.805,6.029,4330,1995,197.462,60.384,13.286
2017-12-07T04:45:44,42.805,6.029,4330,1995,197.374,60.356,13.286
2017-12-07T04:48:44,42.805,6.029,4330,1995,197.280,60.328,13.286
2017-12-07T04:51:44,42.805,6.029,4330,1995,197.297,60.333,13.286
2017-12-07T04:54:44,42.805,6.029,4330,1995,197.198,60.303,13.286
2017-12-07T04:57:44,42.805,6.029,4330,1995,197.179,60.297,13.286
2017-12-07T05:00:44,42.805,6.029,4330,1995,197.321,60.340,13.286
2017-12-07T05:03:44,42.805,6.029,4330,1995,197.186,60.300,13.286
2017-12-07T05:06:44,42.805,6.029,4330,1995,197.252,60.319,13.286
2017-12-07T05:09:44,42.805,6.029,4330,1995,197.271,60.325,13.285
2017-12-07T05:12:44,42.805,6.029,4330,1995,197.261,60.322,13.286
2017-12-07T05:15:44,42.805,6.029,4330,1995,197.141,60.285,13.286
2017-12-07T05:18:44,42.805,6.029,4330,1995,197.150,60.288,13.286
2017-12-07T05:21:44,42.805,6.029,4330,1995,197.143,60.286,13.286
2017-12-07T05:24:44,42.805,6.029,4330,1995,197.139,60.285,13.286
2017-12-07T05:27:44,42.805,6.029,4330,1995,197.117,60.278,13.286
2017-12-07T05:30:44,42.805,6.029,4330,1995,196.983,60.238,13.286
2017-12-07T05:33:44,42.805,6.029,4330,1995,196.983,60.237,13.286
2017-12-07T05:36:44,42.805,6.029,4330,1995,197.069,60.264,13.286
2017-12-07T05:39:44,42.805,6.029,4330,1995,196.987,60.239,13.286
2017-12-07T05:42:44,42.805,6.029,4330,1995,196.949,60.227,13.286
2017-12-07T05:45:44,42.805,6.029,4330,1995,196.867,60.203,13.287
2017-12-07T05:48:44,42.805,6.029,4330,1995,196.777,60.175,13.286
2017-12-07T05:51:44,42.805,6.029,4330,1995,196.884,60.207,13.286
2017-12-07T05:54:44,42.805,6.029,4330,1995,196.839,60.193,13.286
2017-12-07T05:57:44,42.805,6.029,4330,1995,196.780,60.175,13.286
2017-12-07T06:00:44,42.805,6.029,4330,1995,196.894,60.210,13.286
2017-12-07T06:03:44,42.805,6.029,4330,1995,196.827,60.189,13.286
2017-12-07T06:06:44,42.805,6.029,4330,1995,196.862,60.200,13.286
2017-12-07T06:09:44,42.805,6.029,4330,1995,196.900,60.212,13.286
2017-12-07T06:12:44,42.805,6.029,4330,1995,196.719,60.156,13.286
2017-12-07T06:15:44,42.805,6.029,4330,1995,196.816,60.186,13.286
2017-12-07T06:18:44,42.805,6.029,4330,1995,196.783,60.177,13.286
2017-12-07T06:21:44,42.805,6.029,4330,1995,196.868,60.202,13.286
2017-12-07T06:24:44,42.805,6.029,4330,1995,196.768,60.172,13.286
2017-12-07T06:27:44,42.805,6.029,4330,1995,196.846,60.195,13.286
2017-12-07T06:30:44,42.805,6.029,4330,1995,196.894,60.210,13.286
2017-12-07T06:33:44,42.805,6.029,4330,1995,196.836,60.192,13.286
2017-12-07T06:36:44,42.805,6.029,4330,1995,196.814,60.186,13.286
2017-12-07T06:39:44,42.805,6.029,4330,1995,196.791,60.179,13.286
2017-12-07T06:42:44,42.805,6.029,4330,1995,196.680,60.145,13.286
2017-12-07T06:45:44,42.805,6.029,4330,1995,196.758,60.169,13.286
2017-12-07T06:48:44,42.805,6.029,4330,1995,196.818,60.187,13.286
2017-12-07T06:51:44,42.805,6.029,4330,1995,196.795,60.180,13.286
2017-12-07T06:54:44,42.805,6.029,4330,1995,196.739,60.163,13.286
2017-12-07T06:57:44,42.805,6.029,4330,1995,196.730,60.159,13.286
2017-12-07T07:00:44,42.805,6.029,4330,1995,196.750,60.166,13.286
2017-12-07T07:03:44,42.805,6.029,4330,1995,196.812,60.185,13.286
2017-12-07T07:06:44,42.805,6.029,4330,1995,196.790,60.178,13.286
2017-12-07T07:09:44,42.805,6.029,4330,1995,196.741,60.164,13.286
2017-12-07T07:12:44,42.805,6.029,4330,1995,196.716,60.156,13.286
2017-12-07T07:15:44,42.805,6.029,4330,1995,196.761,60.170,13.286
2017-12-07T07:18:44,42.805,6.029,4330,1995,196.658,60.138,13.286
2017-12-07T07:21:44,42.805,6.029,4330,1995,196.712,60.155,13.286
2017-12-07T07:24:44,42.805,6.029,4330,1995,196.651,60.136,13.286
2017-12-07T07:27:44,42.805,6.029,4330,1995,196.672,60.142,13.286
2017-12-07T07:30:44,42.805,6.029,4330,1995,196.691,60.148,13.286
2017-12-07T07:33:44,42.805,6.029,4330,1995,196.623,60.127,13.286
2017-12-07T07:36:44,42.805,6.029,4330,1995,196.676,60.144,13.286
2017-12-07T07:39:44,42.805,6.029,4330,1995,196.671,60.142,13.286
2017-12-07T07:42:44,42.805,6.029,4330,1995,196.662,60.139,13.286
2017-12-07T07:45:44,42.805,6.029,4330,1995,196.627,60.128,13.286
2017-12-07T07:48:44,42.805,6.029,4330,1995,196.656,60.138,13.286
2017-12-07T07:51:44,42.805,6.029,4330,1995,196.634,60.131,13.286
2017-12-07T07:54:44,42.805,6.029,4330,1995,196.652,60.136,13.286
2017-12-07T07:57:43,42.805,6.029,4330,1995,196.621,60.126,13.286
2017-12-07T08:00:43,42.805,6.029,4330,1995,196.742,60.164,13.286
2017-12-07T08:03:43,42.805,6.029,4330,1995,196.687,60.147,13.286
2017-12-07T08:06:43,42.805,6.029,4330,1995,196.806,60.183,13.286
2017-12-07T08:09:43,42.805,6.029,4330,1995,196.731,60.160,13.286
2017-12-07T08:12:43,42.805,6.029,4330,1995,196.771,60.172,13.286
2017-12-07T08:15:43,42.805,6.029,4330,1995,196.853,60.197,13.286
2017-12-07T08:18:43,42.805,6.029,4330,1995,196.943,60.225,13.286
2017-12-07T08:21:43,42.805,6.029,4330,1995,196.955,60.228,13.286
2017-12-07T08:24:43,42.805,6.029,4330,1995,196.966,60.232,13.286
2017-12-07T08:27:43,42.805,6.029,4330,1995,196.836,60.193,13.286
2017-12-07T08:30:43,42.805,6.029,4330,1995,196.822,60.188,13.286
2017-12-07T08:33:43,42.805,6.029,4330,1995,196.891,60.209,13.286
2017-12-07T08:36:43,42.805,6.029,4330,1995,196.985,60.238,13.286
2017-12-07T08:39:43,42.805,6.029,4330,1995,197.002,60.242,13.285
2017-12-07T08:42:43,42.805,6.029,4330,1995,197.107,60.275,13.286
2017-12-07T08:45:43,42.805,6.029,4330,1995,197.088,60.269,13.286
2017-12-07T08:48:43,42.805,6.029,4330,1995,197.083,60.267,13.286
2017-12-07T08:51:43,42.805,6.029,4330,1995,197.126,60.282,13.286
2017-12-07T08:54:43,42.805,6.029,4330,1995,197.118,60.278,13.286
2017-12-07T08:57:43,42.805,6.029,4330,1995,197.036,60.254,13.286
2017-12-07T09:00:43,42.805,6.029,4330,1995,197.053,60.258,13.286
2017-12-07T09:03:43,42.805,6.029,4330,1995,197.048,60.257,13.286
2017-12-07T09:06:43,42.805,6.029,4330,1995,197.120,60.279,13.286
2017-12-07T09:09:43,42.805,6.029,4330,1995,197.126,60.281,13.286
2017-12-07T09:12:43,42.805,6.029,4330,1995,197.193,60.301,13.286
2017-12-07T09:15:43,42.805,6.029,4330,1995,197.293,60.332,13.286
2017-12-07T09:18:43,42.805,6.029,4330,1995,197.350,60.349,13.286
2017-12-07T09:21:43,42.805,6.029,4330,1995,197.290,60.332,13.286
2017-12-07T09:24:43,42.805,6.029,4330,1995,197.245,60.318,13.286
2017-12-07T09:27:43,42.805,6.029,4330,1995,197.204,60.305,13.286
2017-12-07T09:30:43,42.805,6.029,4330,1995,197.236,60.315,13.286
2017-12-07T09:33:43,42.805,6.029,4330,1995,197.165,60.293,13.286
2017-12-07T09:36:43,42.805,6.029,4330,1995,197.117,60.279,13.286
2017-12-07T09:39:43,42.805,6.029,4330,1995,197.091,60.270,13.286
2017-12-07T09:42:43,42.805,6.029,4330,1995,197.086,60.269,13.286
2017-12-07T09:45:43,42.805,6.029,4330,1995,197.042,60.256,13.286
2017-12-07T09:48:43,42.805,6.029,4330,1995,197.047,60.257,13.286
2017-12-07T09:51:43,42.805,6.029,4330,1995,197.053,60.259,13.286
2017-12-07T09:54:43,42.805,6.029,4330,1995,197.018,60.248,13.286
2017-12-07T09:57:43,42.805,6.029,4330,1995,197.020,60.250,13.287
2017-12-07T10:00:43,42.805,6.029,4330,1995,196.901,60.213,13.286
2017-12-07T10:03:43,42.805,6.029,4330,1995,196.814,60.187,13.287
2017-12-07T10:06:43,42.805,6.029,4330,1995,196.767,60.171,13.286
2017-12-07T10:09:43,42.805,6.029,4330,1995,196.738,60.162,13.286
2017-12-07T10:12:43,42.805,6.029,4330,1995,196.654,60.137,13.286
2017-12-07T10:15:43,42.805,6.029,4330,1995,196.585,60.116,13.286
2017-12-07T10:18:43,42.805,6.029,4330,1995,196.501,60.090,13.286
2017-12-07T10:21:43,42.805,6.029,4330,1995,196.518,60.095,13.286
2017-12-07T10:24:43,42.805,6.029,4330,1995,196.563,60.109,13.286
2017-12-07T10:27:43,42.805,6.029,4330,1995,196.462,60.078,13.286
2017-12-07T10:30:43,42.805,6.029,4330,1995,196.513,60.094,13.286
2017-12-07T10:33:43,42.805,6.029,4330,1995,196.466,60.079,13.286
2017-12-07T10:36:43,42.805,6.029,4330,1995,196.460,60.078,13.286
2017-12-07T10:39:43,42.805,6.029,4330,1995,196.495,60.088,13.286
2017-12-07T10:42:43,42.805,6.029,4330,1995,196.496,60.088,13.286
2017-12-07T10:45:43,42.805,6.029,4330,1995,196.447,60.074,13.286
2017-12-07T10:48:43,42.805,6.029,4330,1995,196.355,60.046,13.286
2017-12-07T10:51:43,42.805,6.029,4330,1995,196.395,60.058,13.286
2017-12-07T10:54:43,42.805,6.029,4330,1995,196.392,60.057,13.286
2017-12-07T10:57:43,42.805,6.029,4330,1995,196.441,60.072,13.286
2017-12-07T11:00:43,42.805,6.029,4330,1995,196.474,60.083,13.287
2017-12-07T11:03:43,42.805,6.029,4330,1995,196.505,60.091,13.286
2017-12-07T11:06:43,42.805,6.029,4330,1995,196.363,60.048,13.286
2017-12-07T11:09:43,42.805,6.029,4330,1995,196.295,60.029,13.287
2017-12-07T11:12:43,42.805,6.029,4330,1995,196.390,60.057,13.286
2017-12-07T11:15:43,42.805,6.029,4330,1995,196.419,60.066,13.286
2017-12-07T11:18:43,42.805,6.029,4330,1995,196.357,60.047,13.287
2017-12-07T11:21:43,42.805,6.029,4330,1995,196.367,60.049,13.286
2017-12-07T11:24:43,42.805,6.029,4330,1995,196.359,60.048,13.287
2017-12-07T11:27:43,42.805,6.029,4330,1995,196.316,60.034,13.286
2017-12-07T11:30:43,42.805,6.029,4330,1995,196.279,60.022,13.286
2017-12-07T11:33:43,42.805,6.029,4330,1995,196.272,60.020,13.286
2017-12-07T11:36:43,42.805,6.029,4330,1995,196.385,60.055,13.286
2017-12-07T11:39:43,42.805,6.029,4330,1995,196.280,60.023,13.286
2017-12-07T11:42:43,42.805,6.029,4330,1995,196.274,60.021,13.286
2017-12-07T11:45:43,42.805,6.029,4330,1995,196.185,59.994,13.286
2017-12-07T11:48:43,42.805,6.029,4330,1995,196.173,59.990,13.286
2017-12-07T11:51:43,42.805,6.029,4330,1995,196.256,60.015,13.286
2017-12-07T11:54:43,42.805,6.029,4330,1995,196.068,59.958,13.286
2017-12-07T11:57:43,42.805,6.029,4330,1995,195.964,59.926,13.286
2017-12-07T12:00:43,42.805,6.029,4330,1995,196.049,59.952,13.286
2017-12-07T12:03:43,42.805,6.029,4330,1995,196.143,59.981,13.286
2017-12-07T12:06:43,42.805,6.029,4330,1995,195.964,59.926,13.286
2017-12-07T12:09:43,42.805,6.029,4330,1995,196.073,59.959,13.286
2017-12-07T12:12:43,42.805,6.029,4330,1995,196.134,59.978,13.286
2017-12-07T12:15:43,42.805,6.029,4330,1995,196.135,59.979,13.286
2017-12-07T12:18:43,42.805,6.029,4330,1995,196.168,59.988,13.286
2017-12-07T12:21:43,42.805,6.029,4330,1995,196.265,60.018,13.286
2017-12-07T12:24:43,42.805,6.029,4330,1995,196.183,59.993,13.286
2017-12-07T12:27:43,42.805,6.029,4330,1995,196.082,59.962,13.286
2017-12-07T12:30:43,42.805,6.029,4330,1995,196.050,59.952,13.286
2017-12-07T12:33:43,42.805,6.029,4330,1995,196.074,59.960,13.286
2017-12-07T12:36:43,42.805,6.029,4330,1995,195.972,59.929,13.286
2017-12-07T12:39:43,42.805,6.029,4330,1995,196.074,59.960,13.286
2017-12-07T12:42:43,42.805,6.029,4330,1995,196.080,59.962,13.286
2017-12-07T12:45:43,42.805,6.029,4330,1995,195.870,59.898,13.287
2017-12-07T12:48:43,42.805,6.029,4330,1995,195.914,59.912,13.287
2017-12-07T12:51:43,42.805,6.029,4330,1995,195.796,59.876,13.287
2017-12-07T12:54:43,42.805,6.029,4330,1995,195.792,59.874,13.286
2017-12-07T12:57:43,42.805,6.029,4330,1995,195.899,59.906,13.286
2017-12-07T13:00:43,42.805,6.029,4330,1995,195.928,59.915,13.286
2017-12-07T13:03:43,42.805,6.029,4330,1995,195.882,59.901,13.286
2017-12-07T13:06:43,42.805,6.029,4330,1995,195.860,59.894,13.286
2017-12-07T13:09:43,42.805,6.029,4330,1995,195.821,59.883,13.287
2017-12-07T13:12:43,42.805,6.029,4330,1995,195.768,59.866,13.286
2017-12-07T13:15:43,42.805,6.029,4330,1995,195.721,59.852,13.286
2017-12-07T13:18:43,42.805,6.029,4330,1995,195.715,59.851,13.287
2017-12-07T13:21:43,42.805,6.029,4330,1995,195.872,59.898,13.286
2017-12-07T13:24:43,42.805,6.029,4330,1995,195.821,59.883,13.286
2017-12-07T13:27:43,42.805,6.029,4330,1995,195.620,59.822,13.287
2017-12-07T13:30:43,42.805,6.029,4330,1995,195.510,59.788,13.286
2017-12-07T13:33:43,42.805,6.029,4330,1995,195.481,59.780,13.287
2017-12-07T13:36:43,42.805,6.029,4330,1995,195.523,59.792,13.287
2017-12-07T13:39:43,42.805,6.029,4330,1995,195.516,59.790,13.287
2017-12-07T13:42:43,42.805,6.029,4330,1995,195.499,59.786,13.287
2017-12-07T13:45:43,42.805,6.029,4330,1995,195.549,59.799,13.286
2017-12-07T13:48:43,42.805,6.029,4330,1995,195.480,59.779,13.286
2017-12-07T13:51:43,42.805,6.029,4330,1995,195.580,59.809,13.286
2017-12-07T13:54:43,42.805,6.029,4330,1995,195.398,59.753,13.286
2017-12-07T13:57:43,42.805,6.029,4330,1995,195.413,59.759,13.287
2017-12-07T14:00:43,42.805,6.029,4330,1995,195.228,59.701,13.286
2017-12-07T14:03:43,42.805,6.029,4330,1995,195.412,59.758,13.287
2017-12-07T14:06:43,42.805,6.029,4330,1995,195.317,59.729,13.287
2017-12-07T14:09:43,42.805,6.029,4330,1995,195.174,59.686,13.287
2017-12-07T14:12:43,42.805,6.029,4330,1995,195.201,59.694,13.287
2017-12-07T14:15:43,42.805,6.029,4330,1995,195.428,59.763,13.287
2017-12-07T14:18:43,42.805,6.029,4330,1995,195.537,59.797,13.287
2017-12-07T14:21:43,42.805,6.029,4330,1995,195.501,59.785,13.287
2017-12-07T14:24:43,42.805,6.029,4330,1995,195.571,59.807,13.287
2017-12-07T14:27:43,42.805,6.029,4330,1995,195.423,59.762,13.287
2017-12-07T14:30:43,42.805,6.029,4330,1995,195.284,59.719,13.287
2017-12-07T14:33:43,42.805,6.029,4330,1995,195.263,59.713,13.287
2017-12-07T14:36:43,42.805,6.029,4330,1995,195.297,59.723,13.287
2017-12-07T14:39:43,42.805,6.029,4330,1995,195.174,59.686,13.288
2017-12-07T14:42:43,42.805,6.029,4330,1995,195.209,59.696,13.287
2017-12-07T14:45:43,42.805,6.029,4330,1995,195.183,59.689,13.287
2017-12-07T14:48:43,42.805,6.029,4330,1995,195.116,59.668,13.287
2017-12-07T14:51:43,42.805,6.029,4330,1995,195.547,59.800,13.287
2017-12-07T14:54:43,42.805,6.029,4330,1995,195.544,59.800,13.288
2017-12-07T14:57:43,42.805,6.029,4330,1995,195.486,59.782,13.288
2017-12-07T15:00:43,42.805,6.029,4330,1995,195.517,59.791,13.288
2017-12-07T15:03:43,42.805,6.029,4330,1995,195.598,59.816,13.288
2017-12-07T15:06:43,42.805,6.029,4330,1995,195.552,59.802,13.287
2017-12-07T15:09:43,42.805,6.029,4330,1995,195.394,59.754,13.288
2017-12-07T15:12:43,42.805,6.029,4330,1995,195.338,59.736,13.287
2017-12-07T15:15:43,42.805,6.029,4330,1995,195.546,59.800,13.287
2017-12-07T15:18:43,42.805,6.029,4330,1995,195.560,59.804,13.287
2017-12-07T15:21:43,42.805,6.029,4330,1995,195.653,59.832,13.287
2017-12-07T15:24:43,42.805,6.029,4330,1995,195.611,59.820,13.287
2017-12-07T15:27:43,42.805,6.029,4330,1995,195.613,59.820,13.287
2017-12-07T15:30:43,42.805,6.029,4330,1995,195.683,59.841,13.287
2017-12-07T15:33:43,42.805,6.029,4330,1995,195.912,59.912,13.287
2017-12-07T15:36:43,42.805,6.029,4330,1995,195.843,59.891,13.287
2017-12-07T15:39:43,42.805,6.029,4330,1995,195.767,59.866,13.287
2017-12-07T15:42:43,42.805,6.029,4330,1995,196.012,59.941,13.287
2017-12-07T15:45:43,42.805,6.029,4330,1995,196.057,59.956,13.287
2017-12-07T15:48:43,42.805,6.029,4330,1995,195.889,59.904,13.287
2017-12-07T15:51:43,42.805,6.029,4330,1995,195.735,59.857,13.287
2017-12-07T15:54:43,42.805,6.029,4330,1995,195.574,59.807,13.286
2017-12-07T15:57:43,42.805,6.029,4330,1995,195.599,59.815,13.286
2017-12-07T16:00:43,42.805,6.029,4330,1995,195.600,59.815,13.286
2017-12-07T16:03:43,42.805,6.029,4330,1995,195.657,59.833,13.286
2017-12-07T16:06:43,42.805,6.029,4330,1995,195.761,59.863,13.286
2017-12-07T16:09:43,42.805,6.029,4330,1995,195.841,59.889,13.286
2017-12-07T16:12:43,42.805,6.029,4330,1995,195.820,59.883,13.287
2017-12-07T16:15:43,42.805,6.029,4330,1995,195.730,59.855,13.287
2017-12-07T16:18:43,42.805,6.029,4330,1995,195.762,59.865,13.287
2017-12-07T16:21:43,42.805,6.029,4330,1995,195.790,59.874,13.287
2017-12-07T16:24:43,42.805,6.029,4330,1995,195.992,59.935,13.287
2017-12-07T16:27:43,42.805,6.029,4330,1995,196.120,59.974,13.287
2017-12-07T16:30:43,42.805,6.029,4330,1995,196.281,60.025,13.287
2017-12-07T16:33:43,42.805,6.029,4330,1995,196.430,60.070,13.287
2017-12-07T16:36:43,42.805,6.029,4330,1995,196.259,60.017,13.287
2017-12-07T16:39:43,42.805,6.029,4330,1995,196.372,60.051,13.286
2017-12-07T16:42:43,42.805,6.029,4330,1995,196.429,60.069,13.287
2017-12-07T16:45:43,42.805,6.029,4330,1995,196.401,60.060,13.286
2017-12-07T16:48:43,42.805,6.029,4330,1995,196.487,60.086,13.286
2017-12-07T16:51:43,42.805,6.029,4330,1995,196.449,60.075,13.287
2017-12-07T16:54:43,42.805,6.029,4330,1995,196.252,60.015,13.287
2017-12-07T16:57:43,42.805,6.029,4330,1995,196.233,60.010,13.287
2017-12-07T17:00:43,42.805,6.029,4330,1995,196.253,60.015,13.287
2017-12-07T17:03:43,42.805,6.029,4330,1995,196.370,60.051,13.287
2017-12-07T17:06:43,42.805,6.029,4330,1995,196.313,60.033,13.287
2017-12-07T17:09:43,42.805,6.029,4330,1995,196.359,60.048,13.287
2017-12-07T17:12:43,42.805,6.029,4330,1995,196.331,60.039,13.287
2017-12-07T17:15:43,42.805,6.029,4330,1995,196.290,60.027,13.287
2017-12-07T17:18:43,42.805,6.029,4330,1995,196.166,59.989,13.287
2017-12-07T17:21:43,42.805,6.029,4330,1995,196.183,59.994,13.287
2017-12-07T17:24:43,42.805,6.029,4330,1995,196.444,60.074,13.287
2017-12-07T17:27:43,42.805,6.029,4330,1995,196.470,60.081,13.287
2017-12-07T17:30:43,42.805,6.029,4330,1995,196.722,60.158,13.286
2017-12-07T17:33:43,42.805,6.029,4330,1995,196.556,60.108,13.286
2017-12-07T17:36:43,42.805,6.029,4330,1995,196.649,60.137,13.287
2017-12-07T17:39:43,42.805,6.029,4330,1995,196.574,60.113,13.287
2017-12-07T17:42:43,42.805,6.029,4330,1995,196.602,60.122,13.286
2017-12-07T17:45:43,42.805,6.029,4330,1995,196.524,60.097,13.286
2017-12-07T17:48:43,42.805,6.029,4330,1995,196.416,60.065,13.287
2017-12-07T17:51:43,42.805,6.029,4330,1995,196.377,60.053,13.287
2017-12-07T17:54:43,42.805,6.029,4330,1995,196.466,60.080,13.286
2017-12-07T17:57:43,42.805,6.029,4330,1995,196.404,60.061,13.286
2017-12-07T18:00:43,42.805,6.029,4330,1995,196.395,60.058,13.286
2017-12-07T18:03:43,42.805,6.029,4330,1995,196.449,60.074,13.286
2017-12-07T18:06:43,42.805,6.029,4330,1995,196.558,60.108,13.286